Flag for U.S.A. Weather past 2 weeks in Cape Canaveral, Florida, U.S.A.

Now
66 °F

Passing clouds.


Feels Like: 66 °F
Forecast: 64 / 70 °F
Wind: 10 mph from East

Location: Cape Kennedy

Current Time: Feb 28, 2015 at 11:04:16 AM

Latest Report: Feb 28, 2015 at 10:01 AM


Visibility: 10 mi

Pressure: 30.34 "Hg

Humidity: 94%

Dew point: 64 °F

Location of Cape CanaveralLocation

Historic Weather in Cape Canaveral — Graph

°F

Cape Canaveral temperature yesterday

Maximum temperature yesterday: 64 °F (at 11:58 PM)
Minimum temperature yesterday: 55 °F (at 2:03 PM)
Average temperature yesterday: 59 °F

Past Weeks' High & Low Weather Summary

 TemperatureHumidityPressure
High82 °F (Feb 23, 2:58 PM)100% (Feb 23, 7:03 AM)30.43 "Hg (Feb 23, 7:03 AM)
Low36 °F (Feb 20, 6:58 AM)25% (Feb 19, 1:58 PM)29.70 "Hg (Feb 26, 3:58 AM)
Average60 °F73%30.11 "Hg
* Reported Feb 13 9:58 AM — Feb 28 9:58 AM, Cape Canaveral, Weather by CustomWeather, © 2015

Note: Actual official high and low records may vary slightly from our data, if they occured in-between our weather recording intervals... More about our weather records

Advertising

Cape Canaveral weather history for previous 24 hours

 ConditionsComfort  
Time TempWeatherWind HumidityBarometerVisibility
9:58 AM
Sat, Feb 28
66 °FPassing clouds.8 mph92%30.35 "Hg10 mi
8:58 AM65 °FSunny.12 mph95%30.33 "Hg9 mi
7:58 AM65 °FFog.12 mph95%30.31 "Hg5 mi
7:03 AM64 °FFog.9 mph94%30.28 "Hg6 mi
6:58 AM65 °FFog.8 mph94%30.29 "Hg6 mi
6:48 AM64 °FSunny.12 mph94%30.27 "Hg8 mi
5:58 AM65 °FClear.10 mph93%30.26 "Hg10 mi
5:03 AM66 °FClear.9 mph88%30.24 "Hg10 mi
4:58 AM66 °FClear.10 mph88%30.25 "Hg8 mi
3:58 AM65 °FClear.3 mph90%30.24 "Hg10 mi
2:58 AM65 °FPassing clouds.8 mph91%30.23 "Hg10 mi
1:58 AM65 °FClear.7 mph92%30.23 "Hg10 mi
12:58 AM64 °FPassing clouds.6 mph94%30.24 "Hg10 mi
11:58 PM
Fri, Feb 27
64 °FPassing clouds.6 mph95%30.25 "Hg10 mi
10:58 PM63 °FPassing clouds.7 mph96%30.25 "Hg10 mi
10:02 PM59 °FFog.6 mph100%30.24 "Hg6 mi
9:58 PM59 °FDrizzle. Fog.5 mph96%30.25 "Hg6 mi
8:58 PM59 °FLight rain. Fog.9 mph95%30.26 "Hg6 mi
7:58 PM59 °FClear.10 mph95%30.22 "Hg9 mi
6:58 PM58 °FDrizzle. Fog.13 mph94%30.21 "Hg5 mi
5:58 PM57 °FPartly sunny.15 mph94%30.19 "Hg9 mi
5:03 PM57 °FLight rain. Scattered clouds.14 mph94%30.18 "Hg7 mi
3:58 PM56 °FPartly sunny.17 mph93%30.19 "Hg7 mi
2:58 PM56 °FLight rain. Fog.18 mph91%30.19 "Hg5 mi
2:03 PM55 °FPartly sunny.18 mph88%30.18 "Hg7 mi
12:58 PM57 °FPassing clouds.17 mph83%30.21 "Hg10 mi
11:58 AM58 °FPassing clouds.14 mph80%30.21 "Hg10 mi
Weather by CustomWeather, © 2015

See weather overviewHow to use our weather pages